Date String (YYYY-MM-DD hh:mm:ss) UTC,Instrument flags,absolute air pressure of the measurement (hPa),sample flow rate (lpm),inlet stack bypass flow (lpm),air temperature of the measurement (°C),ambient temperature measured by the external sensor (°C),aerosol sample conditioner tube jacket temperature (°C),OPC LED temperature (°C),internal box temperature (°C),relative humidity of the measurement (%),span deviation,mass concentration of particles derived from Lorenz-Mie calculation of OPC scattering (μg/m³),mass concentration of particles derived from Lorenz-Mie calculation of OPC scattering (μg/m³),mass concentration of particles derived from Lorenz-Mie calculation of OPC scattering (μg/m³)
DateTimeUTC,F1_M11,P_M11,Q1_M11,Q2_M11,T1_M11,T2_M11,T3_M11,T4_M11,T5_M11,U1_M11,ZSPAN_M11,X2_M11,X0_M11,X1_M11
2023-12-06 03:00:00,SystemResetWarning,0836.0,4.99,000.00,026.3,025.4,000.0,034.6,027.6,14.7,0005.5,0006.77,0010.18,0006.10
2023-12-06 03:01:00,SystemResetWarning,0836.0,5.00,000.00,026.3,025.4,000.0,034.6,027.6,14.7,0005.4,0006.91,0010.46,0006.18
2023-12-06 03:02:00,SystemResetWarning,0836.0,5.00,000.00,026.3,025.4,000.0,034.6,027.6,14.6,0005.5,0006.98,0011.05,0006.24
2023-12-06 03:03:00,SystemResetWarning,0836.1,5.00,000.00,026.3,025.4,000.0,034.6,027.7,14.6,0005.8,0007.08,0011.28,0006.29
2023-12-06 03:04:00,SystemResetWarning,0836.0,5.00,000.00,026.3,025.4,000.0,034.6,027.7,14.6,0005.7,0007.12,0011.52,0006.33
2023-12-06 03:05:00,SystemResetWarning,0836.0,5.00,000.00,026.4,025.5,000.0,034.6,027.7,14.6,0005.9,0007.12,0011.56,0006.37
2023-12-06 03:06:00,SystemResetWarning,0836.0,5.00,000.00,026.4,025.5,000.0,034.6,027.7,14.6,0006.2,0007.17,0012.12,0006.40
2023-12-06 03:07:00,SystemResetWarning,0835.9,5.00,000.00,026.4,025.4,000.0,034.6,027.7,14.6,0006.2,0007.21,0012.23,0006.42
2023-12-06 03:08:00,SystemResetWarning,0836.0,5.02,000.00,026.4,025.4,000.0,034.6,027.7,14.6,0006.1,0007.19,0012.04,0006.44
2023-12-06 03:09:00,SystemResetWarning,0835.9,5.02,000.00,026.4,025.4,000.0,034.6,027.7,14.3,0006.2,0007.22,0011.95,0006.48
2023-12-06 03:10:00,SystemResetWarning,0835.9,4.99,000.00,026.4,025.4,000.0,034.6,027.7,14.1,0006.3,0007.28,0012.48,0006.52
2023-12-06 03:11:00,SystemResetWarning,0835.9,4.99,000.00,026.4,025.4,000.0,034.7,027.7,14.1,0006.1,0007.29,0012.54,0006.56
2023-12-06 03:12:00,SystemResetWarning,0835.9,5.01,000.00,026.4,025.4,000.0,034.7,027.6,14.1,0006.0,0007.32,0013.01,0006.57
2023-12-06 03:13:00,SystemResetWarning,0835.9,5.01,000.00,026.4,025.4,000.0,034.7,027.7,14.1,0006.2,0007.31,0012.58,0006.59
2023-12-06 03:14:00,SystemResetWarning,0835.9,5.00,000.00,026.4,025.5,000.0,034.7,027.7,14.2,0006.0,0007.25,0012.52,0006.57
2023-12-06 03:15:00,SystemResetWarning,0835.9,5.00,000.00,026.4,025.4,000.0,034.7,027.7,14.3,0006.2,0007.19,0012.35,0006.56
2023-12-06 03:16:00,SystemResetWarning,0835.9,5.00,000.00,026.4,025.5,000.0,034.7,027.7,14.3,0006.2,0007.16,0012.30,0006.54
2023-12-06 03:17:00,SystemResetWarning,0835.9,5.00,000.00,026.4,025.5,000.0,034.7,027.7,14.3,0005.9,0007.16,0012.12,0006.53
2023-12-06 03:18:00,SystemResetWarning,0836.0,5.00,000.00,026.4,025.5,000.0,034.7,027.6,14.2,0005.7,0007.05,0011.82,0006.46
2023-12-06 03:19:00,SystemResetWarning,0836.0,5.00,000.00,026.4,025.4,000.0,034.7,027.6,13.9,0005.7,0006.99,0011.82,0006.36
2023-12-06 03:20:00,SystemResetWarning,0836.0,5.00,000.00,026.4,025.4,000.0,034.7,027.6,13.9,0005.6,0006.83,0011.63,0006.24
2023-12-06 03:21:00,SystemResetWarning,0836.1,5.00,000.00,026.4,025.4,000.0,034.7,027.6,14.0,0005.8,0006.71,0011.24,0006.11
2023-12-06 03:22:00,SystemResetWarning,0836.0,5.01,000.00,026.4,025.4,000.0,034.7,027.6,14.0,0005.9,0006.61,0011.08,0005.99
2023-12-06 03:23:00,SystemResetWarning,0836.0,5.02,000.00,026.3,025.4,000.0,034.7,027.6,14.0,0006.0,0006.49,0010.69,0005.91
2023-12-06 03:24:00,SystemResetWarning,0836.0,4.99,000.00,026.3,025.4,000.0,034.7,027.6,13.9,0006.1,0006.46,0010.91,0005.86
2023-12-06 03:25:00,SystemResetWarning,0836.0,4.98,000.00,026.3,025.4,000.0,034.7,027.6,13.9,0005.9,0006.44,0011.72,0005.82
2023-12-06 03:26:00,SystemResetWarning,0836.0,5.01,000.00,026.3,025.4,000.0,034.7,027.5,13.9,0005.4,0006.38,0011.68,0005.76
2023-12-06 03:27:00,SystemResetWarning,0836.0,5.01,000.00,026.3,025.4,000.0,034.7,027.5,13.9,0005.2,0006.28,0011.49,0005.68
2023-12-06 03:28:00,SystemResetWarning,0836.1,5.01,000.00,026.3,025.4,000.0,034.7,027.5,13.9,0005.3,0006.11,0011.09,0005.52
2023-12-06 03:29:00,SystemResetWarning,0836.1,4.99,000.00,026.3,025.3,000.0,034.7,027.6,13.8,0005.5,0005.94,0010.86,0005.40
2023-12-06 03:30:00,SystemResetWarning,0836.1,5.00,000.00,026.3,025.3,000.0,034.6,027.6,13.7,0005.3,0005.86,0010.78,0005.37
2023-12-06 03:31:00,SystemResetWarning,0836.1,5.00,000.00,026.3,025.3,000.0,034.6,027.6,13.7,0005.0,0005.88,0010.97,0005.37
2023-12-06 03:32:00,SystemResetWarning,0836.0,5.00,000.00,026.3,025.3,000.0,034.6,027.5,13.8,0004.8,0005.92,0011.04,0005.37
2023-12-06 03:33:00,SystemResetWarning,0836.0,4.99,000.00,026.3,025.3,000.0,034.6,027.5,13.8,0004.8,0005.90,0010.99,0005.35
2023-12-06 03:34:00,SystemResetWarning,0836.0,4.99,000.00,026.3,025.3,000.0,034.6,027.5,13.8,0004.5,0005.84,0010.74,0005.29
2023-12-06 03:35:00,SystemResetWarning,0836.0,5.00,000.00,026.3,025.3,000.0,034.6,027.5,13.8,0004.3,0005.70,0010.32,0005.18
2023-12-06 03:36:00,SystemResetWarning,0836.0,4.99,000.00,026.3,025.3,000.0,034.6,027.5,13.8,0004.4,0005.55,0009.12,0005.07
2023-12-06 03:37:00,SystemResetWarning,0836.0,5.00,000.00,026.3,025.3,000.0,034.6,027.5,13.8,0004.9,0005.45,0008.83,0004.97
2023-12-06 03:38:00,SystemResetWarning,0836.0,5.00,000.00,026.2,025.3,000.0,034.6,027.5,14.0,0004.9,0005.35,0008.96,0004.85
2023-12-06 03:39:00,SystemResetWarning,0836.0,5.00,000.00,026.2,025.3,000.0,034.6,027.5,14.1,0004.8,0005.31,0009.24,0004.81
2023-12-06 03:40:00,SystemResetWarning,0836.1,5.00,000.00,026.2,025.3,000.0,034.6,027.5,14.1,0004.8,0005.27,0009.63,0004.77
2023-12-06 03:41:00,SystemResetWarning,0836.0,5.00,000.00,026.2,025.3,000.0,034.6,027.5,13.8,0002.3,0005.24,0009.90,0004.73
2023-12-06 03:42:00,SystemResetWarning,0836.0,5.00,000.00,026.2,025.2,000.0,034.6,027.5,13.9,0000.0,0005.20,0009.96,0004.67
2023-12-06 03:43:00,SystemResetWarning,0836.0,5.00,000.00,026.2,025.2,000.0,034.6,027.5,14.0,0000.0,0005.12,0009.81,0004.61
2023-12-06 03:44:00,SystemResetWarning,0836.0,5.00,000.00,026.2,025.2,000.0,034.6,027.5,14.0,0000.0,0005.02,0009.68,0004.55
2023-12-06 03:45:00,SystemResetWarning,0836.0,5.00,000.00,026.2,025.2,000.0,034.6,027.5,14.1,0000.9,0005.02,0009.67,0004.53
2023-12-06 03:46:00,SystemResetWarning,0836.0,5.00,000.00,026.2,025.2,000.0,034.6,027.5,14.2,0000.0,0005.03,0009.74,0004.52
2023-12-06 03:47:00,SystemResetWarning,0835.9,5.00,000.00,026.2,025.2,000.0,034.6,027.5,14.3,0000.0,0005.06,0009.75,0004.54
2023-12-06 03:48:00,SystemResetWarning,0835.9,5.00,000.00,026.2,025.2,000.0,034.6,027.4,14.5,0000.0,0005.10,0009.92,0004.59
2023-12-06 03:49:00,SystemResetWarning,0835.9,5.00,000.00,026.2,025.2,000.0,034.6,027.5,14.6,0000.0,0005.21,0010.64,0004.69
2023-12-06 03:50:00,SystemResetWarning,0835.9,5.00,000.00,026.2,025.2,000.0,034.6,027.5,14.6,0000.0,0005.20,0010.44,0004.70
2023-12-06 03:51:00,SystemResetWarning,0835.9,5.00,000.00,026.2,025.2,000.0,034.6,027.5,14.7,0000.0,0005.24,0010.03,0004.72
2023-12-06 03:52:00,SystemResetWarning,0835.9,5.00,000.00,026.2,025.2,000.0,034.6,027.5,14.9,0001.5,0005.27,0009.72,0004.77
2023-12-06 03:53:00,SystemResetWarning,0835.9,5.00,000.00,026.2,025.3,000.0,034.6,027.5,14.9,0002.2,0005.30,0009.48,0004.82
2023-12-06 03:54:00,SystemResetWarning,0835.9,5.00,000.00,026.2,025.3,000.0,034.6,027.5,14.9,0000.0,0005.33,0010.82,0004.87
2023-12-06 03:55:00,SystemResetWarning,0835.9,5.00,000.00,026.2,025.3,000.0,034.6,027.5,14.9,0000.0,0005.42,0011.14,0004.95
2023-12-06 03:56:00,SystemResetWarning,0835.9,4.98,000.00,026.2,025.3,000.0,034.6,027.5,14.9,0000.0,0005.49,0011.47,0005.04
2023-12-06 03:57:00,SystemResetWarning,0835.9,5.01,000.00,026.2,025.3,000.0,034.6,027.5,14.9,0000.0,0005.64,0011.69,0005.18
2023-12-06 03:58:00,SystemResetWarning,0835.9,5.01,000.00,026.2,025.3,000.0,034.6,027.5,14.9,0000.0,0005.79,0012.68,0005.34
2023-12-06 03:59:00,SystemResetWarning,0835.9,5.01,000.00,026.2,025.3,000.0,034.5,027.5,15.0,0000.0,0005.91,0013.52,0005.46
